Hourly Weather Roundup
Issued by NWS Central Illinois

Home | Current Version | Previous Version | Text Only | Print | Product List | Glossary On
Versions: 1 2 3 4 5 6 7 8 9 10 11 12 13 14 15 16 17 18 19 20 21 22 23 24 25 26 27 28 29 30 31 32 33 34 35 36 37 38 39 40 41 42 43 44 45 46 47 48 49 50
286
NZUS43 KILX 170410
HWRILX

AREA WEATHER ROUNDUP
NATIONAL WEATHER SERVICE, LINCOLN IL
1000 PM CST MON JAN 16 2017


CITY           SKY/WX    TMP DP  RH WIND       PRES   REMARKS
BLOOMINGTON    LGT RAIN  47  47 100 S12       29.85F VSB 1/4
CHAMPAIGN      LGT RAIN  52  51  97 SE14      29.87F FOG
DANVILLE       RAIN      51  51  99 S7        29.89F
DECATUR        CLOUDY    52  52 100 S12       29.85F FOG
EFFINGHAM      CLOUDY    57  57 100 SE8       29.91F
FLORA          CLOUDY    57  55  94 S12G17    29.91F
GALESBURG      RAIN      39  39 100 CALM      29.81F VSB 1/4
JACKSONVILLE   CLOUDY    52  52 100 S9        29.81F FOG
LACON          FOG       36  36 100 NE3       29.83F VSB 1/2
LAWRENCEVILLE  CLOUDY    56  55  97 SE13      29.93F
LITCHFIELD     MOCLDY    54  54 100 S10       29.84F FOG
$$


CITY           SKY/WX    TMP DP  RH WIND       PRES   REMARKS
LINCOLN        CLOUDY    48  48 100 SE5       29.83F VSB 1/4
MACOMB         LGT SNOW  41  41 100 W3        29.84S VSB 3/4
MATTOON        LGT RAIN  54  53  97 SE10      29.88F
MT CARMEL AP   CLOUDY    56  54  91 S12       29.93F
OLNEY-NOBLE AP CLOUDY    55  55 100 SE12      29.92F
PARIS          CLOUDY    53  53 100 SE14      29.92S
PEORIA         LGT RAIN  47  47 100 E6        29.81F VSB 1/8
PONTIAC        FOG       40  40 100 SE9       29.87F VSB 3/4 WCI  33
RANTOUL        FOG       51  51  99 SE8       29.88F VSB 1
SPRINGFIELD    FOG       53  52  96 S12       29.83F VSB 3/4
TAYLORVILLE    CLOUDY    52  52  99 SE7       29.84F FOG
$$

...REGIONAL REPORTS...


CITY           SKY/WX    TMP DP  RH WIND       PRES   REMARKS
CHICAGO O`HARE CLOUDY    37  36  96 NE6       29.90F FOG     WCI  32
KANKAKEE       FOG       40  40  97 CALM      29.90F VSB 1/2
MOLINE         LGT RAIN  37  35  92 CALM      29.83F VSB 1/2
MOUNT STERLING FOG       44  44 100 NW9       29.80F VSB 1/4
MOUNT VERNON   CLOUDY    57  56  96 S8        29.90F
PITTSFIELD     LGT RAIN  50  50 100 S3        29.82F VSB 1/4
QUINCY         LGT RAIN  44  44 100 W7        29.82R VSB 1/4
ROCKFORD       CLOUDY    37  36  96 E6        29.89F FOG     WCI  32
$$


CITY           SKY/WX    TMP DP  RH WIND       PRES   REMARKS
BURLINGTON     LGT RAIN  39  39 100 CALM      29.82F FOG
CEDAR RAPIDS   LGT RAIN  34  33  96 NE5       29.85F VSB 3/4 WCI  30
DES MOINES     FOG       34  33  96 NW8       29.88S VSB 1/4 WCI  27
KIRKSVILLE     CLOUDY    44  44 100 W6        29.85S
OTTUMWA        LGT RAIN  36  36 100 NW7       29.84S FOG     WCI  30
ST LOUIS       PTCLDY    58  55  90 S15G21    29.83F
$$


CITY           SKY/WX    TMP DP  RH WIND       PRES   REMARKS
TERRE HAUTE    TSTM      54  53  97 SE10      29.94S FOG
EVANSVILLE     CLOUDY    59  55  87 S10       29.97F
INDIANAPOLIS   LGT RAIN  50  49  96 SE13      29.97F FOG
LAFAYETTE      LGT RAIN  50  50 100 SE5       29.94F
MADISON        LGT RAIN  34  33  96 E6        29.91F FOG     WCI  29
MILWAUKEE      CLOUDY    37  35  92 E13G20    29.94F FOG     WCI  29
$$






USA.gov is the U.S. government's official web portal to all federal, state and local government web resources and services.